Flag for United Kingdom Weather past 2 weeks in Leeds, England, United Kingdom

Now
52 °F

Passing clouds.


Feels Like: 48 °F
Forecast: 56 / 68 °F
Wind: 10 mph from Southwest

Location: Leeds And Bradford

Current Time: Jul 6, 2015 at 3:06:46 AM

Latest Report: Jul 6, 2015 at 2:20 AM


Visibility: N/A

Pressure: 29.98 "Hg

Humidity: 94%

Dew point: 50 °F

Location of LeedsLocation

Historic Weather in Leeds — Graph

°F

Leeds temperature yesterday

Maximum temperature yesterday: 68 °F (at 3:50 PM)
Minimum temperature yesterday: 50 °F (at 2:20 AM)
Average temperature yesterday: 57 °F

Past Weeks' High & Low Weather Summary

 TemperatureHumidityPressure
High86 °F (Jul 1, 5:20 PM)100% (Jun 21, 2:20 AM)30.30 "Hg (Jun 21, 2:20 AM)
Low45 °F (Jun 22, 3:50 AM)46% (Jun 27, 4:20 PM)29.77 "Hg (Jun 22, 4:20 AM)
Average60 °F80%30.02 "Hg
* Reported Jun 21 1:20 AM — Jul 6 1:50 AM, Leeds, Weather by CustomWeather, © 2015

Note: Actual official high and low records may vary slightly from our data, if they occured in-between our weather recording intervals... More about our weather records

Advertising

Leeds weather history for previous 24 hours

 ConditionsComfort  
Time TempWeatherWind HumidityBarometerVisibility
1:50 AM
Mon, Jul 6
50 °FPassing clouds.7 mph94%29.98 "HgN/A
1:20 AM52 °FPassing clouds.6 mph94%29.98 "HgN/A
12:50 AM52 °FPassing clouds.9 mph94%29.98 "HgN/A
12:20 AM52 °FPassing clouds.8 mph100%29.98 "HgN/A
11:50 PM
Sun, Jul 5
54 °FPassing clouds.8 mph94%29.98 "HgN/A
11:20 PM52 °FPassing clouds.5 mph100%29.98 "HgN/A
10:50 PM54 °FPassing clouds.6 mph94%29.98 "HgN/A
10:20 PM54 °FScattered clouds.6 mph94%29.98 "HgN/A
9:50 PM54 °FPassing clouds.7 mph94%29.95 "HgN/A
9:20 PM55 °FScattered clouds.10 mph88%29.95 "HgN/A
8:50 PM55 °FScattered clouds.9 mph94%29.95 "HgN/A
8:20 PM57 °FScattered clouds.9 mph82%29.95 "HgN/A
7:50 PM57 °FScattered clouds.13 mph82%29.95 "HgN/A
7:20 PM57 °FScattered clouds.3 mph88%29.95 "HgN/A
6:50 PM57 °FScattered clouds.3 mph88%29.95 "HgN/A
6:20 PM57 °FScattered clouds.5 mph88%29.92 "HgN/A
5:50 PM55 °FScattered clouds.8 mph88%29.92 "HgN/A
5:20 PM54 °FThundershowers. Scattered clouds.13 mph100%29.92 "HgN/A
4:50 PM54 °FThunderstorms. Scattered clouds.22 mph100%29.95 "Hg3 mi
4:20 PM63 °FHail. Scattered clouds.12 mph83%29.92 "HgN/A
3:50 PM68 °FPassing clouds.10 mph73%29.92 "HgN/A
3:20 PM66 °FScattered clouds.12 mph78%29.92 "HgN/A
2:50 PM66 °FScattered clouds.13 mph78%29.95 "HgN/A
2:20 PM66 °FScattered clouds.6 mph73%29.95 "HgN/A
1:50 PM64 °FPassing clouds.8 mph78%29.98 "HgN/A
1:20 PM64 °FPassing clouds.7 mph73%29.98 "HgN/A
12:50 PM63 °FPassing clouds.6 mph77%29.98 "HgN/A
12:20 PM64 °FPassing clouds.6 mph73%30.01 "HgN/A
11:50 AM63 °FPassing clouds.7 mph77%30.01 "HgN/A
11:20 AM63 °FPassing clouds.5 mph73%30.01 "HgN/A
10:50 AM63 °FPassing clouds.8 mph73%30.04 "HgN/A
10:20 AM61 °FPassing clouds.7 mph77%30.04 "HgN/A
9:50 AM59 °FPassing clouds.5 mph82%30.04 "HgN/A
9:20 AM59 °FSunny.3 mph82%30.04 "Hg10 mi
8:50 AM59 °FSunny.3 mph82%30.07 "Hg10 mi
8:20 AM57 °FSunny.3 mph82%30.07 "Hg10 mi
7:50 AM57 °FSunny.6 mph82%30.07 "Hg10 mi
7:20 AM57 °FPassing clouds.6 mph82%30.07 "HgN/A
6:50 AM55 °FSunny.6 mph88%30.07 "Hg10 mi
6:20 AM54 °FSunny.3 mph94%30.07 "Hg10 mi
5:50 AM52 °FSunny.2 mph94%30.07 "Hg10 mi
5:20 AM50 °FClear.1 mph94%30.07 "Hg10 mi
4:50 AM50 °FClear.1 mph94%30.09 "Hg10 mi
4:20 AM50 °FClear.2 mph94%30.09 "Hg10 mi
3:50 AM50 °FClear.3 mph94%30.09 "Hg10 mi
3:20 AM50 °FClear.1 mph94%30.09 "Hg10 mi
Weather by CustomWeather, © 2015

See weather overviewHow to use our weather pages